Location: General Nathan Twining Observatory
(34.5931°N, 106.8201°W)
Time: 02:32:14
(UTC-06:00)

Daily predictions for brighter satellites

Satellite Brightness Start Highest point End
(mag) Time Altitude Azimuth Time Altitude Azimuth Time Altitude Azimuth
ADEOS II 3.7 03:54:27 10° NE 03:58:42 29° E 03:58:42 29° E
Cosmos 1607 4.3 04:15:19 62° NE 04:15:19 62° NE 04:20:34 10° NNE
Cosmos 1943 4.2 04:11:04 10° N 04:16:31 44° ENE 04:21:53 10° SE
Cosmos 2263 Rocket 2.7 04:21:57 57° NE 04:21:57 57° NE 04:26:31 10° NNE
Atlas Centaur 2 3.1 04:22:30 42° SE 04:22:30 42° SE 04:26:21 10° E
MOS 1-B 4.2 04:43:57 10° NNE 04:49:46 86° WNW 04:50:50 62° SSW
Cosmos 1850 Rocket 4.3 04:51:52 52° NNW 04:51:52 52° NNW 04:56:15 10° N
Intercosmos 25 Rocket 4.0 04:56:01 28° SSE 04:58:11 57° E 05:01:37 10° NNE
CZ-3 R/B 3.5 04:49:52 30° SW 05:01:17 54° S 05:08:40 10° E
CZ-4B R/B 3.7 04:58:53 10° NNE 05:04:06 56° ESE 05:09:20 10° S
GOES 2 Rocket 4.1 05:06:07 30° SSE 05:06:07 30° SSE 05:09:12 10° ESE
USA 238 DEB 4.0 05:01:21 22° SSW 05:06:01 65° ESE 05:12:55 10° NE
USA 238 4.0 05:01:24 21° SSW 05:06:09 64° ESE 05:13:02 10° NE
Cosmos 332 Rocket 4.1 05:09:01 10° N 05:13:47 64° ENE 05:18:32 10° SSE
Cosmos 371 Rocket 3.8 05:13:40 10° N 05:18:30 60° ENE 05:23:15 10° SSE
Cosmos 1570 Rocket 3.9 05:16:38 10° NNW 05:21:53 65° WSW 05:27:08 10° S
Okean O Rocket 1.4 05:19:02 10° N 05:23:21 69° WNW 05:25:09 34° SSW
Cosmos 2208 Rocket 3.9 05:24:12 10° NNW 05:29:23 61° WSW 05:34:30 10° S
Nadezhda 2 Rocket 4.4 05:25:41 10° N 05:32:00 72° W 05:38:12 10° S
Cosmos 1975 3.1 05:30:23 10° NNW 05:34:16 42° W 05:36:04 26° SW
Meteor 2-11 Rocket 4.3 05:32:22 10° S 05:38:26 77° W 05:44:32 10° N
ADEOS II 2.9 05:34:07 10° N 05:38:35 29° WNW 05:39:38 27° W
IRS-1C Rocket 4.0 05:33:47 10° N 05:39:04 73° WNW 05:44:18 10° SSW
Delta 2 Rocket 4.1 05:36:22 29° WSW 05:39:17 77° SSE 05:45:04 10° E
Tiangong 1 1.8 05:40:26 29° NNW 05:41:15 38° NNE 05:43:47 10° E
Landsat 4 3.8 05:37:38 10° SSE 05:41:27 78° ENE 05:45:16 10° N
CZ-4B DEB 4.2 05:37:27 10° N 05:42:47 56° WNW 05:48:05 10° SSW
CZ-3A R/B 3.6 05:41:18 19° SW 05:43:26 32° SSE 05:52:57 10° ESE
ATLAS 3B R/B 2.9 05:38:53 17° SW 05:44:40 62° WNW 05:51:47 10° NNE
Meteor 1-31 Rocket 2.6 05:41:11 10° N 05:45:04 82° WNW 05:48:54 10° SSW
Cosmos 1666 2.5 05:41:55 10° N 05:45:41 76° W 05:49:27 10° S
DELTA 2 R/B (1) 3.9 05:42:44 18° WNW 05:46:48 61° NNE 05:52:18 10° E
Cosmos 1814 Rocket 4.3 05:44:03 10° NNW 05:49:13 70° ENE 05:54:23 10° SSE
ATLAS CENTAUR R/B 2.9 05:49:44 10° S 05:53:21 34° ESE 05:56:49 10° NE
Cosmos 1844 Rocket 2.6 05:50:28 10° SSW 05:56:07 81° WNW 06:01:49 10° NNE
Cosmos 1743 3.1 05:52:34 10° NNW 05:56:14 39° W 05:59:52 10° SSW
Meteor 1-23 Rocket 4.3 05:52:42 10° S 05:58:14 79° E 06:03:49 10° N
Cosmos 1943 4.3 05:56:00 10° NW 06:00:10 21° W 06:04:18 10° SSW
ASTRO E2 3.7 05:58:52 15° SW 06:01:43 37° SSE 06:05:27 10° E
CZ-4B R/B 4.4 05:59:55 10° NNW 06:02:25 16° WNW 06:02:51 16° WNW
Cosmos 2263 Rocket 3.9 06:03:41 13° WNW 06:05:21 14° NW 06:08:17 10° NNW
Atlas Centaur 2 2.3 06:05:08 15° W 06:09:54 52° S 06:14:29 10° ESE
Meteor 1-28 Rocket 3.2 06:08:13 10° SSE 06:11:57 88° ENE 06:15:42 10° N
Cosmos 1455 Rocket 4.1 06:12:30 10° NW 06:15:54 23° W 06:19:16 10° SW
Meteor 1-4 Rocket 3.4 06:13:02 10° NW 06:15:59 26° W 06:18:55 10° SSW
Cosmos 841 Rocket 3.5 06:20:35 10° NNW 06:25:47 83° WSW 06:31:00 10° SSE
Okean-O 2.7 06:22:32 10° N 06:26:54 58° WNW 06:31:14 10° SSW
Skynet4D Del rocket 4.5 06:22:21 10° WSW 06:27:39 38° S 06:32:36 10° ESE
Cosmos 1486 Rocket 4.5 06:22:48 10° SW 06:27:42 39° WNW 06:32:37 10° N
MTI 4.4 06:26:50 10° SSW 06:29:49 34° W 06:32:50 10° NNW
Feng Yun 1-1 Rocket 4.3 06:25:26 10° N 06:30:43 58° WNW 06:36:03 10° SSW
SKYMED 2 3.6 06:27:02 10° SSE 06:31:22 88° W 06:35:43 10° NNW
NOSS 3-2 (A) 3.5 06:26:06 10° SW 06:31:56 61° NW 06:38:18 10° NNE
ATLAS 5 CENTAUR R/B 3.4 06:27:08 10° NNW 06:33:05 53° NE 06:39:32 10° SE
